Regional Weather Roundup
Issued by NWS Jackson, KY

Home | Current Version | Previous Version | Text Only | Print | Product List | Glossary On
Versions: 1 2 3 4 5 6 7 8 9 10 11 12 13 14 15 16 17 18 19 20 21 22 23 24 25 26 27
000
ASUS43 KJKL 280610
RWRJKL

EAST KENTUCKY HOURLY WEATHER ROUNDUP
NATIONAL WEATHER SERVICE JACKSON KY
200 AM EDT THU JUL 28 2016

NOTE: "FAIR" INDICATES FEW OR NO CLOUDS BELOW 12,000 FEET WITH
NO SIGNIFICANT WEATHER AND/OR OBSTRUCTIONS TO VISIBILITY.

* THESE REPORTS ARE NOT UNDER NWS QUALITY CONTROL AND MAY NOT
  REPORT WEATHER SUCH AS PRECIPITATION AND FOG.

KYZ079-080-083-085-087-088-110-112-115-119-120-280700
...EASTERN KENTUCKY...

CITY           SKY/WX    TMP DP  RH WIND       PRES   REMARKS
JACKSON        LGT RAIN  72  70  93 CALM      30.00F
6HR MIN TEMP:  71; 6HR MAX TEMP:  73; 6HR PCP:  0.18;

LONDON         CLOUDY    70  67  90 SE3       29.99F
6HR MIN TEMP:  70; 6HR MAX TEMP:  81; 6HR PCP:  0.14;

SOMERSET*      MOCLDY    70  70 100 CALM      29.98F
MONTICELLO*    CLOUDY   N/A N/A N/A VRB6      29.99F
                                      6HR PCP:  0.14;

WILLIAMSBURG*  CLOUDY    68  68 100 CALM      30.00F
MIDDLESBORO*   CLOUDY    71  71 100 CALM      30.02F
6HR MIN TEMP:  70; 6HR MAX TEMP:  83; 6HR PCP:  0.57;

HARLAN APT*      N/A     68  66  94 CALM      30.04F
PIKE CO APT*   LGT RAIN  72  72 100 CALM      30.03S
MOREHEAD APT*  MOCLDY    73  72  94 S5        29.99S
ASHLAND*       MOCLDY    75  72  88 CALM      29.93F
$$

KYZ035-036-041-042-044-050-067-078-099-280700
...CENTRAL KENTUCKY...

CITY           SKY/WX    TMP DP  RH WIND       PRES   REMARKS
MT STERLING*   MOCLDY    73  70  88 SW6       29.99S
FLEMING/MASON* CLOUDY    75  73  96 CALM      29.97S
DANVILLE*      LGT RAIN  72  72 100 CALM      29.98F
LEXINGTON      MOCLDY    77  73  87 S9        29.96F
6HR MIN TEMP:  77; 6HR MAX TEMP:  86;

FRANKFORT      CLOUDY    74  70  87 CALM      29.94F
6HR MIN TEMP:  73; 6HR MAX TEMP:  83; 6HR PCP:  0.05;

LOUISVILLE     TSTM      78  74  87 W10       29.92F FOG
6HR MIN TEMP:  78; 6HR MAX TEMP:  82; 6HR PCP:  0.05;

LEBANON*       MOCLDY    75  73  94 E6        29.95F
GLASGOW*       CLOUDY    75  75 100 CALM      29.95F
BOWLING GREEN  TSTM      75  73  93 CALM      29.96S
6HR MIN TEMP:  75; 6HR MAX TEMP:  80; 6HR PCP:  0.33;

$$

KYZ091>093-OHZ055-061-077-WVZ005-015-034-035-042-280700
...SOUTHERN OHIO/WEST VIRGINIA...

CITY           SKY/WX    TMP DP  RH WIND       PRES   REMARKS
COVINGTON      CLOUDY    76  75  97 CALM      29.94F FOG
COLUMBUS       CLOUDY    78  66  66 CALM      29.92F
DAYTON         MOCLDY    75  63  66 CALM      29.96F
WILMINGTON     PTCLDY    76  70  82 CALM      29.95S
HUNTINGTON       N/A     74  72  93 S5        29.96F
CHARLESTON     LGT RAIN  77  74  90 S5        29.98S
PINEVILLE*     CLOUDY    73  69  89 MISG      30.08F FOG
BECKLEY          N/A     69  67  93 CALM      30.07S
BLUEFIELD      LGT RAIN  70  69  97 SW5       30.10S
LOGAN CO APT*  FOG       72  72 100 CALM      30.01S VSB<1/4
$$

VAZ002-007-008-TNZ017-027-036-066-071-280700
...SOUTHWEST VIRGINIA/EAST TENNESSEE...

CITY           SKY/WX    TMP DP  RH WIND       PRES   REMARKS
WISE*            N/A    N/A N/A N/A S9        30.16R THUNDER
JONESVILLE*    CLOUDY    72  72 100 E3        30.07S
ABINGDON*      RAIN      75  72  91 W13       30.09R
BRISTOL        TSTM      73  70  90 W10       30.07R
MORRISTOWN*    MOCLDY    77  70  78 NE7       30.03S
SEVIERVILLE*   PTCLDY    82  66  57 SW5       30.00S
KNOXVILLE      CLOUDY    81  70  69 SW12      30.00F
OAK RIDGE      MOCLDY    82  69  64 CALM      30.01F
CROSSVILLE     MOCLDY    74  69  85 VRB3      30.05F
NASHVILLE      CLOUDY    81  71  71 S5        29.96S
$$

...KEY TO REMARKS...
VSB - VISIBILITY IN MILES
WCI - WIND CHILL INDEX
HX  - HEAT INDEX

$$




USA.gov is the U.S. government's official web portal to all federal, state and local government web resources and services.